Meteo orario Kozino

Oggi, 7 Marzo, Domenica

Tempo Temperatura Precipitazioni Vento Pressione Umidità
00:00 -16°C° 0 mm 3 m/s 746 mm Hg 92%
01:00 -16°C° 0 mm 3 m/s 746 mm Hg 93%
02:00 -17°C° 0 mm 3 m/s 746 mm Hg 93%
03:00 -17°C° 0 mm 3 m/s 746 mm Hg 93%
04:00 -17°C° 0 mm 3 m/s 745 mm Hg 93%
05:00 -17°C° 0 mm 3 m/s 745 mm Hg 93%
06:00 -17°C° 0 mm 3 m/s 745 mm Hg 92%
07:00 -17°C° 0 mm 4 m/s 744 mm Hg 90%
08:00 -15°C° 0 mm 5 m/s 743 mm Hg 87%
09:00 -14°C° 0 mm 6 m/s 743 mm Hg 84%
10:00 -13°C° 0.1 mm 7 m/s 742 mm Hg 86%
11:00 -12°C° 0.1 mm 8 m/s 741 mm Hg 87%
12:00 -11°C° 0.1 mm 9 m/s 740 mm Hg 89%
13:00 -11°C° 0.4 mm 9 m/s 739 mm Hg 90%
14:00 -10°C° 0.4 mm 10 m/s 738 mm Hg 91%
15:00 -9°C° 0.4 mm 10 m/s 737 mm Hg 91%
16:00 -9°C° 0.6 mm 10 m/s 736 mm Hg 92%
17:00 -9°C° 0.6 mm 9 m/s 735 mm Hg 92%
18:00 -9°C° 0.6 mm 9 m/s 734 mm Hg 93%
19:00 -7°C° 0.4 mm 8 m/s 733 mm Hg 93%
20:00 -7°C° 0.4 mm 8 m/s 733 mm Hg 93%
21:00 -6°C° 0.4 mm 8 m/s 733 mm Hg 94%
22:00 -6°C° 0.3 mm 6 m/s 733 mm Hg 93%
23:00 -7°C° 0.3 mm 5 m/s 733 mm Hg 93%

Domani, 8 Marzo, Lunedi

Tempo Temperatura Precipitazioni Vento Pressione Umidità
00:00 -8°C° 0.3 mm 4 m/s 733 mm Hg 92%
01:00 -9°C° 0 mm 4 m/s 733 mm Hg 92%
02:00 -11°C° 0 mm 4 m/s 734 mm Hg 92%
03:00 -12°C° 0 mm 4 m/s 734 mm Hg 92%
04:00 -12°C° 0 mm 4 m/s 734 mm Hg 91%
05:00 -12°C° 0 mm 4 m/s 734 mm Hg 90%
06:00 -12°C° 0 mm 4 m/s 734 mm Hg 90%
07:00 -13°C° 0.1 mm 5 m/s 734 mm Hg 91%
08:00 -12°C° 0.1 mm 5 m/s 734 mm Hg 91%
09:00 -11°C° 0.1 mm 5 m/s 734 mm Hg 92%
10:00 -11°C° 0.1 mm 6 m/s 735 mm Hg 91%
11:00 -10°C° 0.1 mm 6 m/s 735 mm Hg 90%
12:00 -9°C° 0.1 mm 6 m/s 735 mm Hg 88%
13:00 -9°C° 0.1 mm 6 m/s 735 mm Hg 86%
14:00 -8°C° 0.1 mm 7 m/s 735 mm Hg 83%
15:00 -8°C° 0.1 mm 7 m/s 735 mm Hg 81%
16:00 -9°C° 0.1 mm 6 m/s 736 mm Hg 82%
17:00 -11°C° 0.1 mm 5 m/s 736 mm Hg 82%
18:00 -11°C° 0.1 mm 4 m/s 737 mm Hg 83%
19:00 -12°C° 0 mm 4 m/s 738 mm Hg 86%
20:00 -13°C° 0 mm 3 m/s 738 mm Hg 89%
21:00 -14°C° 0 mm 3 m/s 739 mm Hg 92%
22:00 -15°C° 0 mm 3 m/s 739 mm Hg 92%
23:00 -15°C° 0 mm 3 m/s 740 mm Hg 93%

Dopodomani, 9 Marzo, Martedi

Tempo Temperatura Precipitazioni Vento Pressione Umidità
00:00 -16°C° 0 mm 3 m/s 740 mm Hg 94%
01:00 -17°C° 0 mm 3 m/s 741 mm Hg 95%
02:00 -17°C° 0 mm 3 m/s 741 mm Hg 95%
03:00 -18°C° 0 mm 3 m/s 742 mm Hg 96%
04:00 -18°C° 0 mm 3 m/s 742 mm Hg 96%
05:00 -19°C° 0 mm 3 m/s 743 mm Hg 96%
06:00 -19°C° 0 mm 3 m/s 743 mm Hg 97%
07:00 -19°C° 0 mm 3 m/s 744 mm Hg 96%
08:00 -19°C° 0 mm 3 m/s 744 mm Hg 95%
09:00 -18°C° 0 mm 3 m/s 745 mm Hg 94%
10:00 -17°C° 0 mm 3 m/s 745 mm Hg 92%
11:00 -16°C° 0 mm 3 m/s 745 mm Hg 90%
12:00 -15°C° 0 mm 3 m/s 746 mm Hg 88%
13:00 -15°C° 0 mm 3 m/s 746 mm Hg 87%
14:00 -14°C° 0 mm 3 m/s 746 mm Hg 87%
15:00 -15°C° 0 mm 4 m/s 746 mm Hg 86%
16:00 -15°C° 0 mm 3 m/s 747 mm Hg 88%
17:00 -16°C° 0 mm 3 m/s 747 mm Hg 91%
18:00 -17°C° 0 mm 3 m/s 747 mm Hg 93%
19:00 -18°C° 0 mm 3 m/s 747 mm Hg 94%
20:00 -18°C° 0 mm 3 m/s 748 mm Hg 95%
21:00 -19°C° 0 mm 3 m/s 749 mm Hg 96%
22:00 -19°C° 0 mm 2 m/s 749 mm Hg 96%
23:00 -20°C° 0 mm 2 m/s 749 mm Hg 96%

10 Marzo, Mercoledi

Tempo Temperatura Precipitazioni Vento Pressione Umidità
00:00 -21°C° 0 mm 2 m/s 749 mm Hg 96%
01:00 -24°C° 0 mm 2 m/s 749 mm Hg 97%
02:00 -25°C° 0 mm 2 m/s 750 mm Hg 97%
03:00 -27°C° 0 mm 3 m/s 750 mm Hg 98%
04:00 -29°C° 0 mm 3 m/s 750 mm Hg 98%
05:00 -29°C° 0 mm 3 m/s 751 mm Hg 98%
06:00 -30°C° 0 mm 3 m/s 751 mm Hg 98%
07:00 -30°C° 0 mm 3 m/s 751 mm Hg 97%
08:00 -29°C° 0 mm 3 m/s 752 mm Hg 96%
09:00 -27°C° 0 mm 3 m/s 752 mm Hg 94%
10:00 -26°C° 0 mm 3 m/s 753 mm Hg 92%
11:00 -24°C° 0 mm 3 m/s 753 mm Hg 90%
12:00 -23°C° 0 mm 3 m/s 753 mm Hg 88%
13:00 -22°C° 0 mm 3 m/s 753 mm Hg 87%
14:00 -21°C° 0 mm 3 m/s 753 mm Hg 86%
15:00 -19°C° 0 mm 3 m/s 753 mm Hg 84%
16:00 -22°C° 0 mm 3 m/s 753 mm Hg 87%
17:00 -21°C° 0 mm 2 m/s 753 mm Hg 90%
18:00 -23°C° 0 mm 2 m/s 753 mm Hg 92%
19:00 -24°C° 0 mm 2 m/s 754 mm Hg 93%
20:00 -24°C° 0 mm 2 m/s 754 mm Hg 94%
21:00 -22°C° 0 mm 1 m/s 755 mm Hg 94%
22:00 -23°C° 0 mm 1 m/s 755 mm Hg 94%
23:00 -23°C° 0 mm 1 m/s 755 mm Hg 94%

11 Marzo, Giovedi

Tempo Temperatura Precipitazioni Vento Pressione Umidità
00:00 -23°C° 0 mm 1 m/s 755 mm Hg 94%
01:00 -24°C° 0 mm 1 m/s 755 mm Hg 93%
02:00 -24°C° 0 mm 1 m/s 755 mm Hg 92%
03:00 -24°C° 0 mm 1 m/s 755 mm Hg 91%
04:00 -24°C° 0 mm 1 m/s 755 mm Hg 90%
05:00 -24°C° 0 mm 1 m/s 755 mm Hg 89%
06:00 -27°C° 0 mm 2 m/s 755 mm Hg 88%
07:00 -25°C° 0 mm 2 m/s 755 mm Hg 86%
08:00 -24°C° 0 mm 2 m/s 755 mm Hg 85%
09:00 -21°C° 0 mm 2 m/s 756 mm Hg 84%
10:00 -22°C° 0 mm 3 m/s 755 mm Hg 82%
11:00 -19°C° 0 mm 3 m/s 755 mm Hg 81%
12:00 -17°C° 0 mm 3 m/s 755 mm Hg 79%
13:00 -17°C° 0 mm 4 m/s 755 mm Hg 81%
14:00 -15°C° 0 mm 4 m/s 754 mm Hg 82%
15:00 -14°C° 0 mm 5 m/s 754 mm Hg 84%
16:00 -15°C° 0 mm 5 m/s 754 mm Hg 86%
17:00 -15°C° 0 mm 5 m/s 753 mm Hg 89%
18:00 -17°C° 0 mm 5 m/s 753 mm Hg 92%
19:00 -17°C° 0 mm 5 m/s 753 mm Hg 92%
20:00 -17°C° 0 mm 5 m/s 752 mm Hg 92%
21:00 -17°C° 0 mm 5 m/s 752 mm Hg 91%
22:00 -17°C° 0 mm 5 m/s 752 mm Hg 90%
23:00 -15°C° 0 mm 5 m/s 752 mm Hg 89%

12 Marzo, Venerdi

Tempo Temperatura Precipitazioni Vento Pressione Umidità
00:00 -15°C° 0 mm 5 m/s 752 mm Hg 87%
01:00 -15°C° 0 mm 5 m/s 751 mm Hg 86%
02:00 -17°C° 0 mm 5 m/s 751 mm Hg 85%
03:00 -17°C° 0 mm 5 m/s 750 mm Hg 84%
04:00 -15°C° 0 mm 5 m/s 750 mm Hg 83%
05:00 -15°C° 0 mm 6 m/s 749 mm Hg 82%
06:00 -14°C° 0 mm 6 m/s 749 mm Hg 82%
07:00 -13°C° 0 mm 7 m/s 748 mm Hg 80%
08:00 -12°C° 0 mm 8 m/s 748 mm Hg 78%
09:00 -10°C° 0 mm 9 m/s 747 mm Hg 77%
10:00 -10°C° 0 mm 9 m/s 746 mm Hg 77%
11:00 -9°C° 0 mm 10 m/s 746 mm Hg 77%
12:00 -9°C° 0 mm 11 m/s 745 mm Hg 77%
13:00 -9°C° 0.4 mm 11 m/s 744 mm Hg 82%
14:00 -10°C° 0.4 mm 12 m/s 743 mm Hg 86%
15:00 -10°C° 0.4 mm 12 m/s 742 mm Hg 91%
16:00 -10°C° 0.9 mm 12 m/s 741 mm Hg 91%
17:00 -10°C° 0.9 mm 12 m/s 740 mm Hg 91%
18:00 -8°C° 0.9 mm 12 m/s 740 mm Hg 91%
19:00 -8°C° 0.2 mm 11 m/s 739 mm Hg 91%
20:00 -7°C° 0.2 mm 11 m/s 739 mm Hg 91%
21:00 -7°C° 0.2 mm 10 m/s 738 mm Hg 91%
22:00 -7°C° 0.4 mm 10 m/s 738 mm Hg 92%
23:00 -5°C° 0.4 mm 9 m/s 738 mm Hg 93%
Mostrare altro